Regional Weather Roundup
Issued by NWS

Home | Current Version | Previous Version | Graphics & Text | Print | Product List | Glossary On
Versions: 1 2 3 4 5 6 7 8 9 10 11 12 13 14 15 16 17 18 19 20 21 22 23 24 25 26 27 28 29 30 31 32 33 34 35 36 37 38 39 40 41 42 43 44 45 46 47 48 49 50
000
ASUS43 KDMX 171006
RWRIA

WEATHER ROUNDUP FOR IOWA
NATIONAL WEATHER SERVICE DES MOINES IA
500 AM CDT TUE OCT 17 2017

NOTE: "FAIR" INDICATES FEW OR NO CLOUDS BELOW 12,000 FEET WITH NO
SIGNIFICANT WEATHER AND/OR OBSTRUCTIONS TO VISIBILITY.

* - THESE STATIONS ARE NOT NWS STATIONS...THUS NOT UNDER NWS
QUALITY CONTROL.  THEY ALSO DO NOT REPORT WEATHER SUCH
AS PRECIPITATION OR FOG.

IAZ001>003-012>014-020>022-031>034-043>046-171100-
   NORTHWEST IOWA

CITY           SKY/WX    TMP DP  RH WIND       PRES   REMARKS
CARROLL *      PTCLDY    54  43  66 SW14      30.08S
CHEROKEE *     CLEAR     42  40  95 S3        30.06S
DENISON *      CLEAR     48  41  76 S5        30.11S
LE MARS *      CLEAR     41  39  93 S3        30.05S
ORANGE CITY *  CLEAR     46  43  87 S6        30.05S
SHELDON *      CLEAR     39  37  93 SE6       30.03S WCI  35
SIOUX CITY     CLEAR     42  39  89 SE7       30.06S
SPENCER        CLEAR     47  39  74 SW7       30.05R
STORM LAKE *   CLEAR     48  39  71 SW9       30.06S
$$

IAZ055>058-069>071-079>083-090>094-171100-
   SOUTHWEST IOWA

CITY           SKY/WX    TMP DP  RH WIND       PRES   REMARKS
ATLANTIC *     CLEAR     46  41  81 S8        30.11S
AUDUBON *      CLEAR     50  41  71 S3        30.12R
CLARINDA *     CLEAR     46  41  81 S7        30.17S
COUNCIL BLFS * CLEAR     52  43  71 S12       30.09F
CRESTON *      CLEAR     48  41  76 SW10      30.16R
HARLAN  *      CLEAR     48  41  76 S7        30.14R
LAMONI         CLEAR     47  40  76 S9        30.17S
RED OAK *      CLEAR     45  41  87 S6        30.13S
SHENANDOAH *   CLEAR     45  41  87 CALM      30.14S
$$

IAZ047>049-059>061-072>074-084-171100-
   CENTRAL IOWA

CITY           SKY/WX    TMP DP  RH WIND       PRES   REMARKS
AMES           CLEAR     49  42  77 S3        30.11R
ANKENY *       CLEAR     52  41  66 S6        30.13S
BOONE *        CLEAR     50  41  71 SW8       30.10R
CHARITON *     CLEAR     50  41  71 SW10      30.16R
DES MOINES     CLEAR     54  40  59 S10       30.13R
GRINNELL*      PTCLDY    50  40  68 SW7       30.15R
KNOXVILLE *    CLEAR     52  39  62 SW9       30.14R
MARSHALLTOWN   CLEAR     50  41  71 SW8       30.10S
NEWTON *       CLEAR     50  41  71 SW12      30.14R
PELLA *        CLEAR     50  40  70 SW8       30.16R
PERRY *          N/A     55  38  53 SW6       30.10S
$$

IAZ004>006-015-016-023>025-035-036-171100-
   NORTH CENTRAL IOWA

CITY           SKY/WX    TMP DP  RH WIND       PRES   REMARKS
ALGONA *       CLEAR     46  41  81 SW10      30.05S
CLARION *      CLEAR     45  41  87 S8        30.08S
ESTHERVILLE    CLEAR     50  40  68 SW7       30.03S
FORT DODGE *   CLEAR     48  40  73 S7        30.08S
MASON CITY     CLEAR     51  39  63 SW14      30.06S
FOREST CITY *    N/A     45  39  81 SW5       30.06R
WEBSTER CITY * CLEAR     48  39  71 S6        30.07R
IOWA FALLS *     N/A     50  42  72 SW7       30.10R
$$

IAZ007>011-017>019-026>030-037>042-050>054-066-171100-
   NORTHEAST IOWA

CITY           SKY/WX    TMP DP  RH WIND       PRES   REMARKS
CEDAR RAPIDS   CLEAR     50  41  71 SW9       30.13S
CHARLES CITY * CLEAR     50  41  71 SW8       30.07S
CLINTON *      CLOUDY    48  40  73 SW8       30.18R
DECORAH *      CLEAR     52  41  66 VRB5G13   30.05S
DUBUQUE        CLOUDY    47  39  74 SW13      30.12S
MONTICELLO *   CLOUDY    50  41  71 SW5       30.13R
OELWEIN *      CLEAR     45  41  87 S8        30.10S
WATERLOO       CLEAR     51  40  65 SW10      30.08S
$$

IAZ064-065-067-068-078-171100-
   EAST CENTRAL IOWA

CITY           SKY/WX    TMP DP  RH WIND       PRES   REMARKS
DAVENPORT      CLEAR     50  39  66 S8        30.20R
IOWA CITY      CLEAR     50  40  68 CALM      30.18R
MUSCATINE *    CLEAR     52  39  62 S6        30.19R
QUAD CITIES    CLEAR     50  38  63 VRB3      30.18S
$$

IAZ062-063-075>077-085>089-095>099-171100-
   SOUTHEAST IOWA

CITY           SKY/WX    TMP DP  RH WIND       PRES   REMARKS
BURLINGTON     CLEAR     48  42  80 S8        30.20S
FAIRFIELD *    CLEAR     48  39  71 SW8       30.18R
FORT MADISON * CLEAR     52  41  66 SW8       30.21S
KEOKUK *       CLOUDY    48  41  76 SW7       30.21S
OSKALOOSA *      N/A     46  40  79 SW10      30.17S
OTTUMWA        CLEAR     48  40  73 S8        30.17R
WASHINGTON *   CLEAR     46  41  81 S8        30.18S
$$

ABBREVIATIONS USED IN REMARKS
   TC - TEMPERATURES IN CELSIUS
  WCI - WIND CHILL INDEX
   HX - HEAT INDEX
  VSB - VISIBILITY
$$





USA.gov is the U.S. government's official web portal to all federal, state and local government web resources and services.